Weather History for PAIK - May, 2014

Change the Weather History Date:

Tuesday, May 6, 2014

  Actual Average (PASK) Record (PASK)
Temperature  
Mean Temperature 32 °F -  
Max Temperature 28 °F 32 °F 44 °F (2004)
Min Temperature 28 °F 19 °F 3 °F (2012)
Degree Days  
Heating Degree Days 33    
Moisture  
Dew Point 24 °F    
Average Humidity 74    
Maximum Humidity 88    
Minimum Humidity 59    
Precipitation  
Precipitation 0.00 in - - ()
Sea Level Pressure  
Sea Level Pressure 29.79 in    
Wind  
Wind Speed 5 mph (WSW)    
Max Wind Speed 9 mph    
Max Gust Speed -    
Visibility 10 miles    
Events Snow    
Averages and records for this station are not official NWS values.
T = Trace of Precipitation, MM = Missing Value Source: NWS Daily Summary

Daily Weather History Graph

Daily Weather History Graph

Search for Another Location

Airport or City:

Trip Planner

Search our weather history database for the weather conditions in past years. The results will help you decide how hot, cold, wet, or windy it might be!

Date:

Astronomy

May. 06, 2014 Rise Set
Actual Time 5:27 AM AKDT 11:52 PM AKDT
Civil Twilight 3:24 AM AKDT 2:09 AM AKDT
Nautical Twilight Sun does not set Sun does not set
Astronomical Twilight Sun does not set Sun does not set
Moon 12:42 PM AKDT (5/6) 4:35 AM AKDT (5/6)
Length of Visible Light 22h 44m
Length of Day
18h 25m
Waxing Crescent, 47% of the Moon is Illuminated
May 6
Waxing Crescent
May 6
First Quarter
May 14
Full
May 21
Last Quarter
May 28
New

Hourly Weather History & Observations

Time (AKDT) Temp. Windchill Dew Point Humidity Pressure Visibility Wind Dir Wind Speed Gust Speed Precip Events Conditions
4:01 AM 28.9 °F 25.2 °F 25.0 °F 85% 29.92 in 10.0 mi SE 3.5 mph - N/A   Mostly Cloudy
5:01 AM 28.9 °F - 24.1 °F 82% 29.92 in 10.0 mi Calm Calm - N/A   Overcast
7:01 AM 28.0 °F - 24.1 °F 85% 29.90 in 10.0 mi Calm Calm - N/A   Overcast
8:01 AM 28.0 °F 24.2 °F 25.0 °F 88% 29.76 in 10.0 mi South 3.5 mph - N/A   Overcast
8:41 AM 28.4 °F 22.2 °F 24.8 °F 86% 29.75 in 10.0 mi SW 5.8 mph - N/A   Overcast
9:01 AM 28.9 °F 23.9 °F 25.0 °F 85% 29.75 in 10.0 mi SW 4.6 mph - N/A   Overcast
9:21 AM 28.4 °F 20.4 °F 24.8 °F 86% 29.75 in 10.0 mi WSW 8.1 mph - N/A   Overcast
9:40 AM 28.4 °F 21.2 °F 24.8 °F 86% 29.75 in 10.0 mi WSW 6.9 mph - N/A   Overcast
10:01 AM 28.9 °F 22.8 °F 24.1 °F 82% 29.75 in 10.0 mi WSW 5.8 mph - N/A   Overcast
10:31 AM 28.4 °F 22.2 °F 24.8 °F 86% 29.75 in 9.0 mi SW 5.8 mph - 0.00 in Snow Light Snow
11:01 AM 30.0 °F 24.1 °F 23.0 °F 75% 29.74 in 10.0 mi South 5.8 mph - 0.00 in   Overcast
12:01 PM 30.9 °F 25.2 °F 23.0 °F 72% 29.74 in 10.0 mi South 5.8 mph - N/A   Overcast
1:01 PM 32.0 °F 24.8 °F 23.0 °F 69% 29.74 in 10.0 mi South 8.1 mph - N/A   Overcast
3:01 PM 33.1 °F 25.5 °F 21.9 °F 64% 29.74 in 10.0 mi SSW 9.2 mph - N/A   Overcast
4:01 PM 33.1 °F 26.9 °F 21.9 °F 64% 29.75 in 10.0 mi WSW 6.9 mph - N/A   Overcast
5:01 PM 34.0 °F 28.0 °F 21.9 °F 61% 29.74 in 10.0 mi West 6.9 mph - N/A   Overcast
5:23 PM 33.8 °F 29.6 °F 21.2 °F 60% 29.74 in 10.0 mi Variable 4.6 mph - N/A   Overcast
6:01 PM 36.0 °F 29.0 °F 23.0 °F 59% 29.74 in 10.0 mi WSW 9.2 mph - N/A   Mostly Cloudy
7:01 PM 35.1 °F 29.3 °F 21.9 °F 59% 29.73 in 10.0 mi WNW 6.9 mph - N/A   Overcast
8:01 PM 35.1 °F 28.6 °F 23.0 °F 61% 29.87 in 10.0 mi West 8.1 mph - N/A   Overcast
9:01 PM 34.0 °F 28.8 °F 25.0 °F 70% 29.87 in 10.0 mi NNW 5.8 mph - N/A   Scattered Clouds
10:01 PM 33.1 °F 27.7 °F 23.0 °F 66% 29.88 in 10.0 mi NNW 5.8 mph - N/A   Clear
11:01 PM 32.0 °F 27.5 °F 23.0 °F 69% 29.89 in 10.0 mi NNW 4.6 mph - N/A   Clear